• In Deutschland
  • Länderverzeichnis
  • Für 7 Tage
  • Wassertemperatur
  • Satellitenkarten
  • Wetterkarte
  • Widgets
  • user-avatar
    Anmelden

    Stündliche Wetter Pocitelj

    Heute, 23 Mai, Mittwoch

    Zeit Temperatur Niederschläge Wind Luftdruck Luftfeuchtigkeit
    00:00 +18°C° 0,2 mm 2 m/S 748 mmHg 80%
    01:00 +18°C° 0 mm 2 m/S 747 mmHg 79%
    02:00 +18°C° 0,4 mm 2 m/S 747 mmHg 78%
    03:00 +18°C° 0,4 mm 2 m/S 747 mmHg 77%
    04:00 +18°C° 0,4 mm 2 m/S 747 mmHg 77%
    05:00 +19°C° 0,1 mm 2 m/S 747 mmHg 75%
    06:00 +20°C° 0,1 mm 2 m/S 747 mmHg 74%
    07:00 +23°C° 0 mm 2 m/S 747 mmHg 70%
    08:00 +24°C° 0,2 mm 2 m/S 747 mmHg 65%
    09:00 +25°C° 0,2 mm 2 m/S 747 mmHg 60%
    10:00 +27°C° 0,2 mm 2 m/S 747 mmHg 55%
    11:00 +27°C° 0,3 mm 2 m/S 747 mmHg 54%
    12:00 +28°C° 0,3 mm 2 m/S 747 mmHg 53%
    13:00 +28°C° 0,3 mm 2 m/S 747 mmHg 52%
    14:00 +27°C° 0,6 mm 2 m/S 747 mmHg 59%
    15:00 +26°C° 0,6 mm 2 m/S 747 mmHg 66%
    16:00 +25°C° 0,6 mm 2 m/S 746 mmHg 73%
    17:00 +24°C° 1,4 mm 2 m/S 746 mmHg 78%
    18:00 +23°C° 1,4 mm 2 m/S 747 mmHg 83%
    19:00 +20°C° 1,4 mm 2 m/S 747 mmHg 88%
    20:00 +20°C° 0,4 mm 2 m/S 747 mmHg 88%
    21:00 +19°C° 0,4 mm 2 m/S 747 mmHg 88%
    22:00 +20°C° 0,4 mm 1 m/S 747 mmHg 89%
    23:00 +19°C° 0 mm 1 m/S 747 mmHg 88%

    Morgen, 24 Mai, Donnerstag

    Zeit Temperatur Niederschläge Wind Luftdruck Luftfeuchtigkeit
    00:00 +18°C° 0 mm 2 m/S 747 mmHg 88%
    01:00 +18°C° 0 mm 2 m/S 747 mmHg 88%
    02:00 +18°C° 0 mm 2 m/S 747 mmHg 87%
    03:00 +17°C° 0 mm 2 m/S 747 mmHg 87%
    04:00 +17°C° 0 mm 2 m/S 747 mmHg 87%
    05:00 +19°C° 0 mm 2 m/S 747 mmHg 84%
    06:00 +20°C° 0 mm 2 m/S 747 mmHg 81%
    07:00 +21°C° 0 mm 2 m/S 747 mmHg 78%
    08:00 +24°C° 0,2 mm 2 m/S 747 mmHg 73%
    09:00 +25°C° 0,2 mm 2 m/S 747 mmHg 68%
    10:00 +27°C° 0,2 mm 2 m/S 747 mmHg 63%
    11:00 +27°C° 1 mm 2 m/S 747 mmHg 64%
    12:00 +27°C° 1 mm 3 m/S 747 mmHg 65%
    13:00 +27°C° 1 mm 3 m/S 747 mmHg 66%
    14:00 +27°C° 1,3 mm 3 m/S 747 mmHg 69%
    15:00 +26°C° 1,3 mm 3 m/S 747 mmHg 72%
    16:00 +26°C° 1,3 mm 3 m/S 746 mmHg 75%
    17:00 +25°C° 0,1 mm 3 m/S 746 mmHg 78%
    18:00 +24°C° 0,1 mm 3 m/S 746 mmHg 82%
    19:00 +23°C° 0,1 mm 2 m/S 746 mmHg 85%
    20:00 +21°C° 0,2 mm 2 m/S 747 mmHg 86%
    21:00 +21°C° 0,2 mm 2 m/S 747 mmHg 86%
    22:00 +20°C° 0,2 mm 2 m/S 747 mmHg 87%
    23:00 +20°C° 0,1 mm 2 m/S 747 mmHg 87%

    übermorgen, 25 Mai, Freitag

    Zeit Temperatur Niederschläge Wind Luftdruck Luftfeuchtigkeit
    00:00 +19°C° 0,1 mm 2 m/S 747 mmHg 87%
    01:00 +19°C° 0,1 mm 2 m/S 747 mmHg 87%
    02:00 +18°C° 0,1 mm 2 m/S 747 mmHg 87%
    03:00 +18°C° 0,1 mm 2 m/S 747 mmHg 86%
    04:00 +18°C° 0,1 mm 2 m/S 747 mmHg 86%
    05:00 +19°C° 0 mm 2 m/S 747 mmHg 83%
    06:00 +20°C° 0 mm 2 m/S 747 mmHg 80%
    07:00 +23°C° 0 mm 2 m/S 747 mmHg 77%
    08:00 +24°C° 0 mm 2 m/S 747 mmHg 69%
    09:00 +26°C° 0 mm 2 m/S 747 mmHg 61%
    10:00 +28°C° 0 mm 1 m/S 747 mmHg 54%
    11:00 +28°C° 0 mm 2 m/S 747 mmHg 52%
    12:00 +29°C° 0 mm 2 m/S 747 mmHg 51%
    13:00 +29°C° 0 mm 2 m/S 747 mmHg 50%
    14:00 +29°C° 0,1 mm 2 m/S 746 mmHg 52%
    15:00 +29°C° 0,1 mm 3 m/S 746 mmHg 55%
    16:00 +29°C° 0,1 mm 3 m/S 746 mmHg 57%
    17:00 +27°C° 0,2 mm 3 m/S 746 mmHg 65%
    18:00 +25°C° 0,2 mm 3 m/S 747 mmHg 72%
    19:00 +24°C° 0,2 mm 2 m/S 747 mmHg 79%
    20:00 +22°C° 0 mm 3 m/S 747 mmHg 80%
    21:00 +21°C° 0 mm 3 m/S 748 mmHg 81%
    22:00 +20°C° 0 mm 3 m/S 748 mmHg 81%
    23:00 +20°C° 0 mm 3 m/S 748 mmHg 81%

    26 Mai, Samstag

    Zeit Temperatur Niederschläge Wind Luftdruck Luftfeuchtigkeit
    00:00 +19°C° 0 mm 3 m/S 748 mmHg 81%
    01:00 +19°C° 0 mm 3 m/S 748 mmHg 81%
    02:00 +19°C° 0 mm 3 m/S 748 mmHg 81%
    03:00 +18°C° 0 mm 3 m/S 748 mmHg 81%
    04:00 +18°C° 0 mm 3 m/S 748 mmHg 81%
    05:00 +19°C° 0 mm 2 m/S 749 mmHg 78%
    06:00 +21°C° 0 mm 2 m/S 749 mmHg 75%
    07:00 +23°C° 0 mm 2 m/S 749 mmHg 72%
    08:00 +25°C° 0 mm 2 m/S 749 mmHg 65%
    09:00 +27°C° 0 mm 2 m/S 749 mmHg 59%
    10:00 +28°C° 0 mm 1 m/S 750 mmHg 52%
    11:00 +29°C° 0 mm 1 m/S 749 mmHg 50%
    12:00 +30°C° 0 mm 2 m/S 749 mmHg 48%
    13:00 +30°C° 0 mm 2 m/S 749 mmHg 45%
    14:00 +30°C° 0 mm 2 m/S 749 mmHg 48%
    15:00 +30°C° 0 mm 2 m/S 749 mmHg 51%
    16:00 +30°C° 0 mm 3 m/S 749 mmHg 54%
    17:00 +28°C° 0 mm 3 m/S 749 mmHg 61%
    18:00 +26°C° 0 mm 2 m/S 749 mmHg 69%
    19:00 +25°C° 0 mm 2 m/S 749 mmHg 77%
    20:00 +24°C° 0 mm 2 m/S 750 mmHg 78%
    21:00 +23°C° 0 mm 2 m/S 750 mmHg 80%
    22:00 +21°C° 0 mm 2 m/S 750 mmHg 82%
    23:00 +21°C° 0 mm 2 m/S 750 mmHg 82%

    27 Mai, Sonntag

    Zeit Temperatur Niederschläge Wind Luftdruck Luftfeuchtigkeit
    00:00 +20°C° 0 mm 2 m/S 750 mmHg 82%
    01:00 +20°C° 0 mm 2 m/S 750 mmHg 82%
    02:00 +19°C° 0 mm 2 m/S 750 mmHg 82%
    03:00 +19°C° 0 mm 2 m/S 750 mmHg 82%
    04:00 +19°C° 0 mm 2 m/S 749 mmHg 83%
    05:00 +20°C° 0 mm 2 m/S 749 mmHg 79%
    06:00 +23°C° 0 mm 2 m/S 750 mmHg 75%
    07:00 +24°C° 0 mm 2 m/S 750 mmHg 72%
    08:00 +26°C° 0 mm 1 m/S 750 mmHg 65%
    09:00 +28°C° 0 mm 1 m/S 750 mmHg 59%
    10:00 +29°C° 0 mm 1 m/S 750 mmHg 52%
    11:00 +30°C° 0 mm 1 m/S 749 mmHg 52%
    12:00 +30°C° 0 mm 2 m/S 749 mmHg 51%
    13:00 +31°C° 0 mm 2 m/S 749 mmHg 51%
    14:00 +30°C° 0,3 mm 2 m/S 749 mmHg 54%
    15:00 +30°C° 0,3 mm 2 m/S 748 mmHg 58%
    16:00 +29°C° 0,3 mm 2 m/S 748 mmHg 61%
    17:00 +28°C° 0,5 mm 2 m/S 748 mmHg 69%
    18:00 +26°C° 0,5 mm 1 m/S 748 mmHg 76%
    19:00 +24°C° 0,5 mm 1 m/S 748 mmHg 83%
    20:00 +24°C° 0,4 mm 1 m/S 748 mmHg 84%
    21:00 +23°C° 0,4 mm 1 m/S 749 mmHg 85%
    22:00 +22°C° 0,4 mm 1 m/S 749 mmHg 86%
    23:00 +22°C° 0,1 mm 1 m/S 749 mmHg 85%

    28 Mai, Montag

    Zeit Temperatur Niederschläge Wind Luftdruck Luftfeuchtigkeit
    00:00 +22°C° 0,1 mm 1 m/S 749 mmHg 84%
    01:00 +21°C° 0,1 mm 1 m/S 749 mmHg 83%
    02:00 +21°C° 0 mm 1 m/S 748 mmHg 83%
    03:00 +21°C° 0 mm 1 m/S 748 mmHg 83%
    04:00 +20°C° 0 mm 1 m/S 748 mmHg 83%
    05:00 +22°C° 0 mm 1 m/S 748 mmHg 79%
    06:00 +23°C° 0 mm 1 m/S 748 mmHg 76%
    07:00 +25°C° 0 mm 1 m/S 748 mmHg 72%
    08:00 +26°C° 0 mm 1 m/S 748 mmHg 67%
    09:00 +28°C° 0 mm 1 m/S 748 mmHg 62%
    10:00 +29°C° 0 mm 1 m/S 748 mmHg 56%
    11:00 +29°C° 0,1 mm 2 m/S 748 mmHg 56%
    12:00 +30°C° 0,1 mm 2 m/S 748 mmHg 57%
    13:00 +30°C° 0,1 mm 3 m/S 748 mmHg 57%
    14:00 +29°C° 0,6 mm 2 m/S 748 mmHg 60%
    15:00 +29°C° 0,6 mm 2 m/S 747 mmHg 64%
    16:00 +28°C° 0,6 mm 2 m/S 747 mmHg 67%
    17:00 +27°C° 0,3 mm 2 m/S 747 mmHg 72%
    18:00 +26°C° 0,3 mm 1 m/S 747 mmHg 77%
    19:00 +24°C° 0,3 mm 1 m/S 747 mmHg 83%
    20:00 +23°C° 0 mm 1 m/S 748 mmHg 83%
    21:00 +23°C° 0 mm 1 m/S 748 mmHg 84%
    22:00 +21°C° 0 mm 2 m/S 748 mmHg 84%
    23:00 +20°C° 0 mm 2 m/S 748 mmHg 83%
    Mehr zeigen